DELTA 1 DEB, 2976

Orbit data source: Space-Track

DELTA 1 DEB, 2976 is space debris in SSO originally from a launch on Thu, 20 Apr 1967 UTC launched from the Air Force Western Test Range (AFWTR). Debris objects in space refer to the collection of defunct objects orbiting the Earth. Examples of debris include non-operational satellites, rocket bodies, and fragments generated from explosions, collisions, or faulty payload assembly.

Loading next visibility...
Identifier
2976, 1967-036C
Orbit
SSO
Country
Flag of USUS
Related business
Manufacturer
Unknown
Mission
Spacecraft
Bus & Motor
Unknown
Mass
Unknown
Launch date (UTC)
1967-04-20 (59 years ago)
Launch vehicle
Unknown
Launch site
Air Force Western Test Range (AFWTR)
Object type
Payload
Rocket body
Debris
Shape & HBR
Unknown shape, 0.1 m
Radar Cross Section
Small (<0.1 m²)

Expand to show TLE details & history
Last TLE update: 3 days ago

TLE from 3 days ago
0 DELTA 1 DEB
1 02976U 67036C   25292.33286355 -.00000014  00000-0  15844-3 0  9992
2 02976 102.1427  65.2281 0098477 239.6833 147.3920 12.82094611736844
Epoch: 2025-10-19T07:59Z
TLE epoch observation values (Epoch: 2025-10-19T07:59:19.410Z)
Latitude
27.04453°
Longitude
-88.92869°
Altitude
1,400.278 km
Speed
7.132 km/s
True Right ascension
03h 55m 48s
True Declination
26° 55' 01"
Sunlit
Object was in full shadow at epoch
Visualization orbit readout
Latitude
Unknown
Longitude
Unknown
Altitude
Unknown
Speed
Unknown
Apparent Right ascension
Unknown
Apparent Declination
Unknown
Sunlit
N/A
Visualization observer readout
Local Sidereal Time
13:49:47
Azimuth
Unknown
Elevation
Unknown
Doppler factor
Unknown
Orbital elements
Apogee altitude
1,406.501 km
Perigee altitude
1,254.675 km
Semi-major axis
7,708.725 km
Eccentricity
0.00985
Inclination
102.1427°
RAAN
65.2281°
Arg. of periapsis
239.6833°
True anomaly
147.99386°
Mean anomaly
147.392°
Eccentric anomaly
147.69355°
Mean motion
3.20678 °/min
Orbital period
112.26 mins
BSTAR
0.00015844
Loading maneuver chart data...
Computing Atmospheric mass density...
Loading historical data...
Loading historical data...
Loading historical data...
Loading historical data...
Loading historical data...
Loading historical data...
Loading historical data...
Other satellites on launch #36 in the year 1967 (1967-04-20 UTC)

Documentation

Showing up to 5 results
|